Location: Gradaro
(45.0833°N, 10.8833°E)
Time: 15:23:41
(UTC+00:00)

USA 234 - Pass Details

Date: 29 November 2020
Orbit: 1098 x 1110 km, 123.0° (Epoch: 22 January)

Event Time Altitude Azimuth Distance (km) Brightness Sun altitude
Rises 05:48:41 0° 50° (NE) 3,940 6.6 -7.8°
Reaches altitude 10° 05:51:11 10° 51° (NE) 2,979 5.9 -7.4°
Maximum altitude 05:57:47 90° 143° (SE) 1,115 3.4 -6.3°
Drops below altitude 10° 06:04:22 10° 233° (SW) 2,965 5.3 -5.3°
Sets 06:06:50 0° 233° (SW) 3,920 5.9 -4.9°
